QPF
0.00 0.00 0.00 0.00 0.00 0.00 0.00 0.00 0.00 0.00 0.00 0.00 0.00 0.00 0.00 0.00 0.00 0.00 0.00 0.00 0.00 0.00 0.00 0.00 0.00 0.00 0.00 0.00 0.00 0.00 0.00 0.00 0.00 0.00 0.00 0.00 0.00 0.00 0.00 0.00 0.00 0.00 0.00
0.00 0.00 0.00 0.00 0.00 0.00 0.00 0.00 0.00 0.00 0.00 0.00 0.00 0.00 0.00 0.00 0.00 0.00 0.00 0.00 0.00 0.00 0.00 0.00 0.00 0.00 0.00 0.00 0.00 0.00 0.00 0.00 0.00 0.00 0.00 0.00 0.00 0.00 0.00 0.00 0.00 0.00 0.00
0.00 0.00 0.00 0.00 0.00 0.00 0.00 0.00 0.00 0.00 0.00 0.00 0.00 0.00 0.00 0.00 0.00 0.00 0.00 0.00 0.00 0.00 0.00 0.00 0.00 0.00 0.00 0.00 0.00 0.00 0.00 0.00 0.00 0.00 0.00 0.00 0.00 0.00 0.00 0.00 0.00 0.00 0.00
0.00 0.00 0.00 0.00 0.00 0.00 0.00 0.00 0.00 0.00 0.00 0.00 0.00 0.00 0.00 0.00 0.00 0.00 0.00 0.00 0.00 0.00 0.00 0.00 0.00 0.00 0.00 0.00 0.00 0.00 0.00 0.00 0.00 0.00 0.00 0.00 0.00 0.00 0.00 0.00 0.00 0.00 0.00
0.00 0.00 0.00 0.00 0.00 0.00 0.00 0.00 0.00 0.00 0.00 0.00 0.00 0.00 0.00 0.00 0.00 0.00 0.00 0.00 0.00 0.00 0.00 0.00 0.00 0.00 0.00 0.00 0.00 0.00 0.00 0.00 0.00 0.00 0.00 0.00 0.00 0.00 0.00 0.00 0.00 0.00 0.00
0.00 0.00 0.00 0.00 0.00 0.00 0.00 0.00 0.00 0.00 0.00 0.00 0.00 0.00 0.00 0.00 0.00 0.00 0.00 0.00 0.00 0.00 0.00 0.00 0.00 0.00 0.00 0.00 0.00 0.00 0.00 0.00 0.00 0.00 0.00 0.01 0.02 0.01 0.00 0.02 0.03 0.03 0.02
0.00 0.00 0.00 0.00 0.00 0.00 0.00 0.00 0.00 0.00 0.00 0.00 0.00 0.00 0.00 0.00 0.00 0.00 0.00 0.00 0.00 0.00 0.00 0.00 0.00 0.00 0.00 0.01 0.01 0.00 0.00 0.00 0.00 0.00 0.00 0.01 0.02 0.01 0.01 0.07 0.10 0.09 0.08
0.00 0.00 0.00 0.00 0.00 0.00 0.00 0.00 0.00 0.00 0.00 0.00 0.00 0.00 0.00 0.00 0.00 0.00 0.00 0.00 0.00 0.00 0.00 0.00 0.00 0.00 0.01 0.01 0.01 0.01 0.01 0.01 0.00 0.01 0.01 0.01 0.01 0.00 0.02 0.08 0.13 0.12 0.12
0.00 0.00 0.00 0.00 0.00 0.00 0.00 0.00 0.00 0.00 0.00 0.00 0.00 0.00 0.00 0.00 0.00 0.00 0.00 0.00 0.00 0.00 0.00 0.00 0.00 0.00 0.00 0.01 0.01 0.01 0.02 0.01 0.01 0.01 0.00 0.00 0.00 0.00 0.01 0.06 0.11 0.12 0.11
0.00 0.00 0.00 0.00 0.00 0.00 0.00 0.00 0.00 0.00 0.00 0.00 0.00 0.00 0.00 0.00 0.00 0.00 0.00 0.01 0.01 0.01 0.01 0.01 0.01 0.00 0.00 0.00 0.00 0.00 0.01 0.01 0.01 0.01 0.01 0.00 0.00 0.00 0.01 0.04 0.08 0.10 0.09
0.00 0.00 0.00 0.00 0.00 0.00 0.00 0.00 0.00 0.00 0.00 0.00 0.00 0.00 0.00 0.00 0.00 0.00 0.00 0.01 0.02 0.03 0.04 0.06 0.05 0.03 0.02 0.01 0.01 0.00 0.00 0.01 0.00 0.00 0.01 0.00 0.01 0.01 0.02 0.03 0.05 0.07 0.09
0.00 0.00 0.00 0.00 0.00 0.00 0.00 0.00 0.00 0.00 0.00 0.00 0.01 0.00 0.01 0.01 0.01 0.00 0.00 0.01 0.02 0.06 0.08 0.08 0.09 0.06 0.06 0.08 0.08 0.04 0.02 0.01 0.01 0.01 0.02 0.01 0.02 0.04 0.07 0.05 0.06 0.07 0.09
0.00 0.00 0.00 0.00 0.00 0.00 0.00 0.00 0.00 0.00 0.00 0.00 0.00 0.00 0.01 0.00 0.00 0.00 0.00 0.00 0.01 0.03 0.05 0.08 0.11 0.09 0.10 0.11 0.08 0.05 0.02 0.02 0.02 0.02 0.02 0.02 0.02 0.05 0.10 0.08 0.07 0.07 0.07
0.00 0.00 0.00 0.00 0.00 0.00 0.00 0.00 0.00 0.00 0.00 0.00 0.00 0.00 0.00 0.00 0.00 0.00 0.00 0.00 0.01 0.02 0.07 0.11 0.11 0.06 0.04 0.03 0.03 0.02 0.02 0.04 0.03 0.05 0.05 0.01 0.01 0.03 0.07 0.08 0.07 0.06 0.05
0.00 0.00 0.00 0.00 0.00 0.00 0.00 0.00 0.00 0.00 0.00 0.00 0.00 0.00 0.00 0.00 0.00 0.00 0.00 0.01 0.01 0.02 0.04 0.08 0.05 0.03 0.02 0.01 0.01 0.01 0.01 0.02 0.02 0.04 0.04 0.02 0.01 0.02 0.04 0.07 0.07 0.06 0.04
0.00 0.00 0.00 0.00 0.00 0.00 0.00 0.00 0.00 0.00 0.00 0.00 0.00 0.00 0.00 0.00 0.00 0.00 0.00 0.02 0.02 0.03 0.05 0.06 0.03 0.03 0.02 0.02 0.01 0.01 0.01 0.01 0.01 0.02 0.02 0.02 0.01 0.01 0.02 0.04 0.06 0.06 0.05
0.00 0.00 0.00 0.00 0.00 0.00 0.00 0.00 0.00 0.00 0.00 0.00 0.00 0.00 0.00 0.00 0.02 0.03 0.03 0.03 0.04 0.04 0.05 0.06 0.06 0.05 0.03 0.02 0.01 0.01 0.00 0.01 0.01 0.01 0.01 0.01 0.01 0.00 0.00 0.02 0.05 0.05 0.05
0.00 0.00 0.00 0.00 0.00 0.00 0.00 0.00 0.00 0.00 0.00 0.00 0.01 0.02 0.03 0.04 0.06 0.08 0.07 0.06 0.10 0.08 0.07 0.11 0.11 0.08 0.07 0.05 0.02 0.01 0.00 0.00 0.00 0.00 0.00 0.00 0.00 0.00 0.00 0.01 0.03 0.04 0.05
0.00 0.00 0.00 0.00 0.00 0.00 0.00 0.00 0.00 0.00 0.00 0.01 0.04 0.06 0.09 0.09 0.11 0.14 0.12 0.15 0.17 0.13 0.13 0.10 0.13 0.17 0.15 0.14 0.07 0.03 0.00 0.00 0.00 0.00 0.00 0.00 0.00 0.00 0.00 0.01 0.01 0.02 0.04
0.01 0.01 0.00 0.00 0.01 0.01 0.01 0.01 0.01 0.01 0.01 0.03 0.07 0.10 0.13 0.16 0.17 0.19 0.17 0.19 0.20 0.18 0.21 0.25 0.26 0.22 0.16 0.14 0.06 0.02 0.01 0.00 0.00 0.00 0.00 0.00 0.00 0.00 0.00 0.00 0.01 0.01 0.01
0.02 0.03 0.02 0.03 0.04 0.04 0.05 0.06 0.07 0.07 0.10 0.12 0.13 0.15 0.17 0.19 0.21 0.23 0.19 0.23 0.24 0.22 0.25 0.28 0.25 0.20 0.17 0.15 0.07 0.03 0.01 0.00 0.00 0.00 0.00 0.00 0.00 0.00 0.00 0.00 0.00 0.02 0.03
0.04 0.05 0.05 0.06 0.09 0.11 0.13 0.17 0.19 0.23 0.24 0.24 0.24 0.26 0.26 0.24 0.23 0.23 0.25 0.25 0.23 0.23 0.23 0.24 0.22 0.18 0.13 0.11 0.09 0.06 0.01 0.00 0.00 0.00 0.00 0.00 0.00 0.00 0.01 0.01 0.02 0.04 0.04
0.05 0.07 0.07 0.08 0.10 0.13 0.18 0.26 0.29 0.31 0.30 0.31 0.34 0.36 0.35 0.31 0.28 0.25 0.26 0.26 0.23 0.22 0.21 0.22 0.20 0.15 0.11 0.10 0.08 0.07 0.04 0.02 0.01 0.00 0.00 0.01 0.02 0.03 0.04 0.03 0.02 0.02 0.04
0.07 0.09 0.09 0.08 0.10 0.15 0.21 0.30 0.35 0.37 0.39 0.44 0.47 0.45 0.40 0.35 0.32 0.29 0.27 0.24 0.23 0.21 0.17 0.14 0.12 0.10 0.08 0.07 0.06 0.05 0.06 0.07 0.06 0.03 0.01 0.03 0.04 0.04 0.04 0.03 0.02 0.03 0.04
0.06 0.07 0.09 0.08 0.10 0.14 0.18 0.24 0.33 0.35 0.39 0.43 0.44 0.42 0.38 0.36 0.33 0.31 0.27 0.23 0.18 0.14 0.10 0.08 0.07 0.06 0.05 0.04 0.04 0.04 0.04 0.07 0.09 0.08 0.03 0.04 0.05 0.05 0.06 0.05 0.05 0.06 0.06
0.02 0.04 0.05 0.06 0.06 0.08 0.10 0.11 0.14 0.17 0.24 0.27 0.29 0.30 0.30 0.29 0.29 0.28 0.25 0.20 0.16 0.11 0.07 0.05 0.04 0.04 0.03 0.02 0.03 0.03 0.03 0.05 0.07 0.10 0.07 0.06 0.05 0.05 0.05 0.05 0.05 0.05 0.06
MSLP
1011.89 1012.04 1012.41 1012.94 1013.53 1014.08 1014.50 1014.77 1014.89 1014.90 1014.88 1014.91 1015.03 1015.26 1015.59 1015.96 1016.32 1016.60 1016.78 1016.86 1016.85 1016.81 1016.77 1016.78 1016.83 1016.94 1017.07 1017.18 1017.27 1017.30 1017.29 1017.25 1017.21 1017.21 1017.26 1017.35 1017.49 1017.65 1017.80 1017.92 1018.00 1018.04 1018.05
1011.68 1011.96 1012.44 1013.06 1013.73 1014.32 1014.77 1015.03 1015.12 1015.09 1015.04 1015.03 1015.13 1015.36 1015.69 1016.07 1016.43 1016.71 1016.88 1016.93 1016.91 1016.86 1016.82 1016.85 1016.94 1017.08 1017.25 1017.40 1017.50 1017.54 1017.51 1017.45 1017.39 1017.36 1017.39 1017.48 1017.63 1017.81 1017.98 1018.12 1018.22 1018.27 1018.27
1011.50 1011.88 1012.46 1013.17 1013.89 1014.53 1014.99 1015.26 1015.35 1015.32 1015.25 1015.23 1015.32 1015.54 1015.85 1016.20 1016.52 1016.77 1016.90 1016.93 1016.89 1016.83 1016.81 1016.85 1016.98 1017.17 1017.37 1017.55 1017.66 1017.68 1017.63 1017.54 1017.44 1017.37 1017.38 1017.47 1017.62 1017.81 1018.00 1018.17 1018.28 1018.34 1018.36
1011.34 1011.80 1012.45 1013.22 1013.99 1014.66 1015.16 1015.45 1015.56 1015.55 1015.50 1015.49 1015.57 1015.76 1016.04 1016.35 1016.62 1016.82 1016.90 1016.90 1016.84 1016.78 1016.77 1016.85 1017.01 1017.23 1017.46 1017.64 1017.74 1017.75 1017.66 1017.52 1017.38 1017.29 1017.27 1017.34 1017.49 1017.69 1017.89 1018.08 1018.22 1018.30 1018.35
1011.23 1011.73 1012.42 1013.21 1014.00 1014.70 1015.23 1015.56 1015.72 1015.75 1015.73 1015.74 1015.83 1016.01 1016.25 1016.51 1016.73 1016.86 1016.90 1016.87 1016.80 1016.75 1016.77 1016.87 1017.06 1017.30 1017.54 1017.71 1017.79 1017.76 1017.63 1017.44 1017.26 1017.13 1017.09 1017.15 1017.29 1017.49 1017.70 1017.90 1018.06 1018.18 1018.25
1011.16 1011.67 1012.36 1013.14 1013.94 1014.65 1015.20 1015.57 1015.78 1015.87 1015.90 1015.95 1016.06 1016.23 1016.44 1016.65 1016.81 1016.90 1016.91 1016.86 1016.79 1016.76 1016.81 1016.94 1017.15 1017.39 1017.62 1017.76 1017.80 1017.72 1017.54 1017.31 1017.09 1016.94 1016.88 1016.93 1017.07 1017.26 1017.48 1017.69 1017.86 1017.99 1018.10
1011.15 1011.64 1012.29 1013.05 1013.81 1014.51 1015.08 1015.48 1015.74 1015.89 1015.98 1016.07 1016.20 1016.36 1016.55 1016.73 1016.86 1016.92 1016.91 1016.86 1016.81 1016.80 1016.87 1017.02 1017.24 1017.47 1017.66 1017.76 1017.74 1017.61 1017.39 1017.13 1016.89 1016.73 1016.66 1016.71 1016.85 1017.04 1017.26 1017.46 1017.63 1017.77 1017.89
1011.22 1011.66 1012.25 1012.95 1013.66 1014.33 1014.88 1015.31 1015.60 1015.79 1015.93 1016.06 1016.21 1016.38 1016.56 1016.72 1016.83 1016.87 1016.86 1016.82 1016.80 1016.82 1016.91 1017.07 1017.27 1017.47 1017.61 1017.66 1017.59 1017.41 1017.16 1016.88 1016.64 1016.48 1016.44 1016.50 1016.64 1016.84 1017.04 1017.23 1017.38 1017.51 1017.62
1011.37 1011.75 1012.26 1012.88 1013.52 1014.13 1014.65 1015.07 1015.37 1015.59 1015.76 1015.92 1016.09 1016.27 1016.44 1016.59 1016.69 1016.73 1016.73 1016.71 1016.71 1016.75 1016.85 1017.00 1017.17 1017.33 1017.42 1017.41 1017.29 1017.08 1016.81 1016.53 1016.31 1016.19 1016.17 1016.26 1016.42 1016.62 1016.81 1016.98 1017.10 1017.20 1017.28
1011.56 1011.89 1012.33 1012.86 1013.41 1013.94 1014.41 1014.79 1015.08 1015.30 1015.49 1015.66 1015.83 1016.01 1016.18 1016.32 1016.42 1016.48 1016.49 1016.49 1016.50 1016.55 1016.64 1016.77 1016.90 1017.01 1017.04 1016.98 1016.82 1016.59 1016.32 1016.08 1015.89 1015.81 1015.84 1015.97 1016.15 1016.36 1016.54 1016.68 1016.77 1016.83 1016.86
1011.76 1012.05 1012.43 1012.87 1013.34 1013.79 1014.18 1014.50 1014.75 1014.95 1015.12 1015.29 1015.46 1015.63 1015.80 1015.94 1016.05 1016.11 1016.13 1016.14 1016.16 1016.20 1016.28 1016.37 1016.46 1016.52 1016.50 1016.40 1016.22 1015.98 1015.73 1015.51 1015.38 1015.35 1015.43 1015.59 1015.80 1016.02 1016.20 1016.32 1016.38 1016.39 1016.38
1011.90 1012.18 1012.51 1012.89 1013.28 1013.64 1013.96 1014.21 1014.41 1014.56 1014.70 1014.85 1015.01 1015.17 1015.34 1015.48 1015.59 1015.66 1015.69 1015.70 1015.72 1015.75 1015.79 1015.85 1015.90 1015.91 1015.85 1015.72 1015.53 1015.30 1015.07 1014.89 1014.79 1014.81 1014.92 1015.12 1015.35 1015.58 1015.76 1015.87 1015.91 1015.89 1015.85
1011.93 1012.21 1012.53 1012.87 1013.19 1013.49 1013.73 1013.91 1014.05 1014.16 1014.26 1014.38 1014.52 1014.67 1014.83 1014.98 1015.10 1015.17 1015.21 1015.22 1015.23 1015.24 1015.26 1015.28 1015.29 1015.26 1015.18 1015.04 1014.84 1014.62 1014.41 1014.26 1014.19 1014.22 1014.36 1014.57 1014.81 1015.05 1015.23 1015.34 1015.37 1015.34 1015.29
1011.81 1012.12 1012.44 1012.76 1013.05 1013.30 1013.48 1013.61 1013.69 1013.76 1013.82 1013.91 1014.04 1014.19 1014.35 1014.50 1014.63 1014.71 1014.75 1014.77 1014.76 1014.75 1014.75 1014.74 1014.73 1014.68 1014.59 1014.44 1014.25 1014.04 1013.84 1013.69 1013.61 1013.64 1013.77 1013.97 1014.20 1014.44 1014.62 1014.74 1014.79 1014.77 1014.73
1011.52 1011.87 1012.22 1012.55 1012.84 1013.06 1013.22 1013.31 1013.36 1013.38 1013.42 1013.49 1013.61 1013.76 1013.92 1014.09 1014.23 1014.32 1014.37 1014.38 1014.37 1014.35 1014.33 1014.31 1014.28 1014.23 1014.14 1014.00 1013.82 1013.60 1013.39 1013.22 1013.12 1013.10 1013.18 1013.34 1013.55 1013.77 1013.96 1014.10 1014.17 1014.18 1014.16
1011.09 1011.49 1011.89 1012.25 1012.55 1012.78 1012.94 1013.02 1013.05 1013.07 1013.09 1013.16 1013.27 1013.42 1013.59 1013.77 1013.93 1014.04 1014.10 1014.11 1014.10 1014.07 1014.04 1014.01 1013.98 1013.94 1013.86 1013.73 1013.55 1013.33 1013.10 1012.88 1012.72 1012.63 1012.64 1012.73 1012.88 1013.07 1013.26 1013.42 1013.53 1013.59 1013.61
1010.62 1011.05 1011.48 1011.88 1012.22 1012.49 1012.66 1012.76 1012.81 1012.82 1012.85 1012.91 1013.03 1013.19 1013.38 1013.57 1013.74 1013.86 1013.93 1013.94 1013.92 1013.89 1013.85 1013.82 1013.80 1013.76 1013.70 1013.59 1013.41 1013.19 1012.92 1012.65 1012.41 1012.23 1012.14 1012.14 1012.23 1012.38 1012.56 1012.73 1012.87 1012.98 1013.05
1010.18 1010.62 1011.08 1011.52 1011.90 1012.21 1012.42 1012.55 1012.62 1012.66 1012.70 1012.77 1012.88 1013.05 1013.25 1013.45 1013.62 1013.75 1013.82 1013.83 1013.80 1013.76 1013.71 1013.68 1013.66 1013.64 1013.59 1013.49 1013.33 1013.10 1012.81 1012.48 1012.16 1011.89 1011.70 1011.61 1011.62 1011.72 1011.87 1012.05 1012.22 1012.37 1012.47
1009.84 1010.27 1010.74 1011.20 1011.61 1011.96 1012.22 1012.39 1012.49 1012.55 1012.61 1012.69 1012.81 1012.98 1013.17 1013.37 1013.55 1013.67 1013.73 1013.73 1013.68 1013.61 1013.55 1013.50 1013.48 1013.47 1013.45 1013.37 1013.23 1013.00 1012.69 1012.33 1011.95 1011.61 1011.33 1011.15 1011.08 1011.12 1011.24 1011.41 1011.59 1011.76 1011.89
1009.67 1010.05 1010.49 1010.95 1011.38 1011.75 1012.05 1012.25 1012.38 1012.47 1012.53 1012.62 1012.75 1012.91 1013.10 1013.29 1013.46 1013.57 1013.60 1013.58 1013.50 1013.40 1013.31 1013.25 1013.22 1013.21 1013.20 1013.16 1013.05 1012.84 1012.55 1012.18 1011.77 1011.37 1011.03 1010.78 1010.64 1010.62 1010.70 1010.84 1011.01 1011.17 1011.31
1009.67 1009.98 1010.36 1010.78 1011.19 1011.56 1011.86 1012.08 1012.24 1012.34 1012.42 1012.51 1012.63 1012.79 1012.97 1013.15 1013.30 1013.39 1013.40 1013.34 1013.23 1013.09 1012.96 1012.87 1012.83 1012.83 1012.84 1012.83 1012.76 1012.61 1012.36 1012.02 1011.62 1011.20 1010.82 1010.52 1010.33 1010.25 1010.27 1010.37 1010.51 1010.65 1010.77
1009.81 1010.01 1010.30 1010.64 1011.00 1011.33 1011.62 1011.84 1011.99 1012.10 1012.19 1012.28 1012.41 1012.56 1012.73 1012.90 1013.04 1013.11 1013.10 1013.01 1012.86 1012.69 1012.52 1012.40 1012.34 1012.34 1012.38 1012.41 1012.41 1012.32 1012.14 1011.87 1011.51 1011.12 1010.74 1010.41 1010.18 1010.04 1010.00 1010.04 1010.13 1010.23 1010.32
1010.02 1010.10 1010.27 1010.50 1010.77 1011.04 1011.28 1011.47 1011.61 1011.71 1011.80 1011.90 1012.02 1012.18 1012.36 1012.53 1012.66 1012.73 1012.70 1012.60 1012.42 1012.22 1012.03 1011.88 1011.81 1011.81 1011.87 1011.96 1012.03 1012.03 1011.94 1011.76 1011.48 1011.14 1010.79 1010.46 1010.19 1010.00 1009.89 1009.86 1009.88 1009.93 1009.98
1010.24 1010.20 1010.23 1010.33 1010.48 1010.65 1010.82 1010.96 1011.07 1011.16 1011.25 1011.35 1011.49 1011.66 1011.85 1012.04 1012.18 1012.26 1012.25 1012.14 1011.96 1011.75 1011.54 1011.38 1011.30 1011.31 1011.41 1011.54 1011.68 1011.78 1011.80 1011.71 1011.53 1011.26 1010.95 1010.63 1010.34 1010.10 1009.93 1009.83 1009.77 1009.76 1009.76
1010.43 1010.26 1010.15 1010.12 1010.14 1010.20 1010.28 1010.36 1010.43 1010.50 1010.58 1010.70 1010.85 1011.04 1011.26 1011.47 1011.65 1011.75 1011.77 1011.68 1011.52 1011.32 1011.12 1010.96 1010.89 1010.91 1011.04 1011.22 1011.43 1011.61 1011.72 1011.73 1011.64 1011.45 1011.18 1010.88 1010.58 1010.30 1010.07 1009.89 1009.76 1009.68 1009.63
1010.55 1010.28 1010.05 1009.90 1009.80 1009.75 1009.74 1009.76 1009.78 1009.83 1009.90 1010.02 1010.19 1010.40 1010.65 1010.89 1011.11 1011.26 1011.31 1011.27 1011.15 1010.98 1010.80 1010.67 1010.61 1010.65 1010.79 1011.01 1011.27 1011.51 1011.70 1011.80 1011.78 1011.65 1011.43 1011.15 1010.84 1010.52 1010.23 1009.98 1009.79 1009.64 1009.56
Thickness
5837 5832 5818 5814 5812 5809 5807 5804 5801 5798 5796 5793 5790 5787 5785 5782 5780 5777 5775 5773 5771 5770 5768 5766 5765 5763 5761 5760 5758 5756 5755 5753 5752 5750 5748 5747 5745 5744 5744 5743 5744 5745 5741
5843 5833 5819 5815 5812 5809 5807 5804 5801 5798 5795 5792 5789 5786 5784 5781 5779 5777 5775 5773 5771 5769 5768 5766 5764 5762 5760 5759 5757 5755 5754 5752 5751 5749 5748 5747 5745 5743 5743 5742 5743 5744 5740
5843 5833 5821 5816 5812 5809 5806 5803 5800 5797 5794 5791 5789 5786 5783 5780 5778 5776 5774 5772 5771 5769 5767 5765 5763 5762 5760 5758 5756 5754 5753 5751 5750 5749 5750 5753 5748 5743 5742 5741 5740 5740 5739
5842 5833 5825 5816 5812 5809 5806 5803 5800 5796 5793 5790 5787 5785 5782 5780 5778 5776 5773 5771 5770 5768 5766 5764 5763 5761 5759 5757 5755 5753 5752 5751 5750 5750 5755 5756 5753 5745 5742 5741 5740 5739 5738
5841 5834 5826 5817 5812 5809 5805 5802 5799 5796 5792 5789 5786 5784 5781 5779 5777 5775 5773 5771 5769 5767 5766 5764 5762 5760 5758 5756 5754 5753 5751 5750 5749 5750 5755 5754 5752 5745 5743 5741 5740 5739 5738
5840 5834 5825 5816 5812 5808 5805 5802 5798 5795 5791 5788 5785 5783 5781 5779 5777 5775 5772 5770 5769 5767 5765 5763 5762 5760 5758 5756 5754 5752 5751 5750 5750 5756 5756 5753 5752 5747 5743 5742 5741 5739 5738
5840 5834 5825 5815 5811 5807 5804 5801 5798 5794 5791 5788 5785 5783 5780 5778 5777 5775 5773 5771 5769 5767 5765 5764 5762 5760 5758 5756 5754 5752 5751 5750 5751 5758 5756 5754 5752 5747 5744 5743 5742 5741 5739
5839 5834 5824 5813 5810 5806 5803 5800 5797 5794 5790 5788 5785 5783 5780 5778 5777 5775 5773 5771 5770 5768 5766 5764 5762 5760 5758 5757 5755 5753 5752 5750 5754 5758 5757 5756 5753 5748 5745 5743 5743 5742 5741
5839 5833 5824 5816 5809 5804 5801 5798 5795 5793 5790 5787 5785 5782 5780 5778 5776 5775 5773 5772 5770 5769 5767 5765 5763 5761 5759 5757 5755 5754 5753 5752 5753 5759 5759 5758 5754 5749 5746 5745 5744 5743 5743
5835 5830 5825 5819 5813 5808 5803 5798 5795 5792 5789 5786 5784 5782 5780 5778 5776 5775 5774 5772 5771 5769 5767 5766 5765 5763 5761 5759 5757 5755 5754 5753 5757 5761 5760 5759 5754 5750 5748 5746 5746 5745 5744
5828 5827 5824 5820 5814 5810 5807 5802 5795 5791 5788 5786 5784 5781 5779 5781 5782 5778 5777 5773 5771 5769 5768 5767 5766 5764 5763 5762 5760 5758 5756 5760 5766 5764 5762 5759 5754 5750 5749 5748 5747 5746 5746
5822 5822 5821 5818 5813 5810 5808 5803 5798 5795 5792 5788 5788 5785 5783 5783 5783 5782 5778 5774 5771 5770 5769 5768 5768 5766 5766 5768 5766 5762 5763 5766 5767 5766 5764 5759 5754 5751 5750 5750 5749 5748 5747
5822 5820 5818 5815 5811 5809 5806 5803 5800 5798 5795 5791 5789 5786 5784 5783 5782 5781 5780 5777 5774 5772 5773 5773 5772 5771 5772 5771 5770 5769 5769 5769 5768 5768 5766 5760 5756 5753 5752 5751 5750 5749 5748
5821 5818 5816 5812 5807 5804 5804 5802 5799 5797 5795 5793 5789 5785 5786 5783 5782 5781 5779 5779 5777 5775 5774 5773 5772 5773 5772 5772 5771 5770 5770 5769 5769 5768 5765 5761 5758 5755 5753 5753 5752 5751 5750
5818 5816 5814 5809 5805 5801 5798 5797 5797 5795 5795 5791 5788 5785 5784 5783 5781 5780 5777 5775 5774 5775 5774 5772 5772 5773 5772 5772 5771 5771 5770 5770 5769 5768 5767 5763 5760 5757 5755 5754 5753 5752 5751
5818 5815 5813 5807 5802 5797 5794 5792 5792 5791 5789 5788 5787 5785 5781 5780 5779 5777 5775 5773 5773 5772 5771 5770 5771 5770 5771 5772 5770 5770 5768 5769 5769 5768 5767 5767 5763 5760 5758 5756 5755 5753 5752
5818 5815 5809 5804 5800 5794 5791 5789 5789 5788 5787 5786 5784 5781 5778 5777 5776 5773 5773 5772 5772 5770 5768 5766 5767 5767 5767 5769 5768 5769 5769 5768 5767 5766 5765 5765 5766 5764 5761 5758 5756 5755 5753
5815 5810 5806 5803 5798 5793 5789 5786 5787 5786 5785 5783 5781 5779 5775 5773 5771 5769 5770 5770 5768 5766 5765 5763 5762 5763 5763 5764 5765 5766 5768 5767 5766 5765 5765 5765 5764 5765 5764 5760 5757 5755 5754
5810 5806 5802 5799 5796 5791 5787 5784 5781 5780 5779 5778 5777 5775 5772 5769 5767 5765 5765 5764 5762 5761 5760 5759 5761 5757 5756 5756 5758 5761 5764 5765 5765 5764 5764 5763 5763 5762 5761 5761 5757 5755 5753
5805 5801 5797 5794 5790 5787 5783 5780 5777 5775 5774 5773 5772 5770 5767 5764 5762 5760 5758 5757 5756 5754 5753 5751 5750 5750 5749 5749 5752 5756 5759 5762 5763 5763 5761 5762 5762 5761 5760 5758 5757 5757 5753
5797 5793 5791 5788 5786 5782 5778 5774 5770 5768 5768 5768 5767 5764 5762 5759 5756 5754 5753 5751 5749 5747 5746 5746 5745 5743 5742 5744 5743 5747 5755 5760 5761 5759 5759 5758 5758 5757 5755 5753 5752 5752 5752
5786 5784 5783 5781 5780 5778 5775 5771 5768 5765 5763 5763 5761 5759 5756 5753 5750 5748 5746 5744 5743 5741 5739 5740 5739 5737 5738 5740 5736 5736 5741 5750 5754 5757 5754 5752 5751 5751 5750 5749 5747 5745 5744
5774 5773 5773 5772 5772 5771 5768 5765 5762 5760 5757 5754 5753 5752 5750 5747 5744 5741 5738 5737 5737 5735 5733 5733 5734 5731 5731 5734 5735 5731 5730 5735 5740 5747 5747 5745 5742 5741 5742 5743 5742 5742 5739
5763 5764 5763 5762 5762 5761 5760 5757 5754 5750 5748 5748 5747 5747 5743 5741 5737 5733 5730 5728 5728 5728 5727 5728 5731 5730 5728 5727 5729 5729 5729 5728 5722 5728 5737 5737 5734 5732 5733 5734 5736 5736 5734
5754 5754 5754 5753 5752 5751 5749 5748 5746 5744 5744 5744 5742 5739 5736 5733 5729 5726 5723 5722 5721 5721 5722 5724 5724 5724 5725 5724 5724 5724 5723 5720 5718 5713 5718 5723 5725 5727 5727 5726 5727 5728 5727
5744 5744 5744 5743 5741 5741 5739 5739 5737 5736 5734 5733 5733 5730 5727 5723 5722 5720 5718 5716 5715 5716 5717 5718 5718 5718 5719 5719 5718 5718 5715 5713 5712 5708 5708 5712 5713 5718 5720 5721 5720 5720 5718